TimeEST,TemperatureF,Dew PointF,Humidity,Sea Level PressureIn,VisibilityMPH,Wind Direction,Wind SpeedMPH,Gust SpeedMPH,PrecipitationIn,Events,Conditions,WindDirDegrees,DateUTC
12:53 AM,66.9,57.9,73,29.89,10.0,South,13.8,23.0,N/A,,Mostly Cloudy,190,2011-12-23 05:53:00
1:53 AM,66.9,57.0,70,29.86,10.0,South,18.4,28.8,N/A,,Clear,190,2011-12-23 06:53:00
2:53 AM,66.9,57.0,70,29.89,10.0,SSW,16.1,21.9,N/A,,Partly Cloudy,210,2011-12-23 07:53:00
3:53 AM,68.0,55.4,64,29.90,10.0,SSW,15.0,24.2,N/A,,Scattered Clouds,200,2011-12-23 08:53:00
4:53 AM,68.0,55.9,65,29.94,10.0,SW,11.5,18.4,N/A,,Overcast,230,2011-12-23 09:53:00
5:53 AM,68.0,57.0,68,29.95,10.0,SW,10.4,-,N/A,,Overcast,220,2011-12-23 10:53:00
6:53 AM,66.9,57.0,70,29.98,10.0,SW,8.1,-,0.00,Rain,Light Rain,230,2011-12-23 11:53:00
7:37 AM,62.6,51.8,68,30.02,10.0,NW,11.5,24.2,0.00,,Overcast,310,2011-12-23 12:37:00
7:48 AM,62.6,51.8,68,30.03,10.0,NW,10.4,-,0.00,,Overcast,320,2011-12-23 12:48:00
7:53 AM,63.0,51.1,65,30.03,10.0,NNW,9.2,-,0.00,,Overcast,330,2011-12-23 12:53:00
8:38 AM,60.8,46.4,59,30.07,10.0,NW,13.8,-,N/A,,Overcast,320,2011-12-23 13:38:00
8:53 AM,60.1,46.0,60,30.08,10.0,NW,10.4,-,N/A,,Overcast,320,2011-12-23 13:53:00
9:53 AM,59.0,44.1,58,30.12,10.0,WNW,10.4,-,N/A,,Mostly Cloudy,300,2011-12-23 14:53:00
10:53 AM,59.0,41.0,51,30.12,10.0,NNW,13.8,-,N/A,,Scattered Clouds,340,2011-12-23 15:53:00
11:53 AM,64.0,42.1,45,30.09,10.0,North,10.4,16.1,N/A,,Mostly Cloudy,350,2011-12-23 16:53:00
12:53 PM,62.6,42.8,48,30.08,10.0,NNW,6.9,-,N/A,,Mostly Cloudy,330,2011-12-23 17:53:00
1:53 PM,63.0,42.1,46,30.08,10.0,NW,8.1,-,N/A,,Overcast,310,2011-12-23 18:53:00
2:53 PM,64.0,41.0,43,30.09,10.0,NNW,9.2,-,N/A,,Mostly Cloudy,330,2011-12-23 19:53:00
3:53 PM,63.0,41.0,45,30.10,10.0,North,6.9,-,N/A,,Clear,350,2011-12-23 20:53:00
4:53 PM,59.0,41.0,51,30.13,10.0,NW,5.8,-,N/A,,Clear,320,2011-12-23 21:53:00
5:53 PM,55.0,41.0,59,30.16,10.0,NNW,4.6,-,N/A,,Clear,330,2011-12-23 22:53:00
6:53 PM,53.1,39.9,61,30.18,10.0,NNW,4.6,-,N/A,,Partly Cloudy,330,2011-12-23 23:53:00
7:53 PM,52.0,39.0,61,30.21,10.0,NNW,5.8,-,N/A,,Clear,340,2011-12-24 00:53:00
8:53 PM,51.1,37.0,59,30.23,10.0,NNW,10.4,-,N/A,,Clear,330,2011-12-24 01:53:00
9:53 PM,48.9,36.0,61,30.24,10.0,NNW,8.1,-,N/A,,Clear,330,2011-12-24 02:53:00
10:53 PM,48.0,36.0,63,30.26,10.0,NNW,8.1,-,N/A,,Partly Cloudy,340,2011-12-24 03:53:00
11:53 PM,48.9,36.0,61,30.26,10.0,NNW,8.1,-,N/A,,Overcast,340,2011-12-24 04:53:00